Regional Weather Roundup
Issued by NWS

Home | Current Version | Previous Version | Text Only | Print | Product List | Glossary Off
Versions: 1 2 3 4 5 6 7 8 9 10 11 12 13 14 15 16 17 18 19 20 21 22 23 24 25 26 27 28 29 30 31 32 33 34 35 36 37 38 39 40 41 42 43 44 45 46 47 48 49 50

000
ASUS45 KCYS 250510
RWRWY

WYOMING REGIONAL WEATHER ROUNDUP
NATIONAL WEATHER SERVICE CHEYENNE WY
1000 PM MST SAT JAN 24 2015

NOTE:  "FAIR" INDICATES FEW OR NO CLOUDS BELOW 12,000 FEET
WITH NO SIGNIFICANT WEATHER AND/OR OBSTRUCTIONS TO VISIBILITY.

WYZ001-250600-
YELLOWSTONE NATIONAL PARK

CITY           SKY/WX    TMP DP  RH WIND       PRES   REMARKS
LK YELLOWSTONE   N/A     23  20  88 CALM      30.37R
W YELLOWSTONE  NOT AVBL

$$
WYZ002>013-054>058-071-098>099-250600-
NORTHERN WYOMING

CITY           SKY/WX    TMP DP  RH WIND       PRES   REMARKS
JACKSON        CLOUDY    23  21  93 N3        30.38S
CODY           FAIR      45  23  42 W9        30.17R
GREYBULL       FAIR      18  17  96 VRB3      30.18S
WORLAND        FAIR      20  16  84 S3        30.18R
SHERIDAN       MOCLDY    34  31  88 SW3       30.13F
BUFFALO        FAIR      37  31  78 NW7       30.13F WCI  32
GILLETTE       MOCLDY    34  27  75 W14       30.11S WCI  25
HULETT           N/A    N/A N/A N/A MISG        N/A
NEWCASTLE      FAIR      30  28  93 NW10      30.07S WCI  21

$$
WYZ014>020-022>026-101>103-250600-
CENTRAL WYOMING

CITY           SKY/WX    TMP DP  RH WIND       PRES   REMARKS
BIG PINEY      FAIR      32  24  72 N13       30.33R WCI  22
PINEDALE       FAIR      32  27  80 W17       30.30R WCI  21
DUBOIS         CLOUDY    34  27  75 W10       30.28F WCI  26
LANDER         FAIR      36  26  67 S3        30.19R
RIVERTON       FAIR      41  25  53 N13       30.20R
CASPER         FAIR      24  21  88 CALM      30.19S
DOUGLAS        CLOUDY    36  28  73 NW15      30.17R WCI  27

$$
WYZ021-027>030-104>119-250600-
SOUTHERN WYOMING

CITY           SKY/WX    TMP DP  RH WIND       PRES   REMARKS
EVANSTON       FAIR      27  23  85 VRB3      30.43S
KEMMERER       CLOUDY    30  30 100 W9        30.41R WCI  22
FORT BRIDGER   FAIR      32  30  92 W18       30.42F WCI  21
ROCK SPRINGS   FAIR      32  27  81 W36G43    30.30F WCI  16
DIXON          CLOUDY    32  24  72 W7        30.35R WCI  26
RAWLINS        MOCLDY    30  25  81 W14       30.28R WCI  19
SARATOGA       CLOUDY    32  27  80 W20G30    30.26R WCI  20
LARAMIE        CLOUDY    34  23  64 NW20G26   30.17R WCI  23
CHEYENNE       CLOUDY    39  25  57 NW14G30   30.12R WCI  31
TORRINGTON     MOCLDY    39  27  62 NW15      30.10R WCI  31
PINE BLUFFS    LGT RAIN  36  30  80 NW23G31   30.13R WCI  24

$$



USA.gov is the U.S. government's official web portal to all federal, state and local government web resources and services.